BADR-4

Last updated on Fri Sep 19 2025 00:02:47 GMT+0000 (Coordinated Universal Time)

1 29526U 06051A 25261.15898722 .00000125 00000+0 00000+0 0 9990 2 29526 1.2980 84.0142 0004330 147.5483 209.2343 1.00272112 48536
UTC large
Height (km)
Speed (km/s)
/
Latitude / Longitude
Inclination (degrees)
Orbital Period (minutes)
Azimuth
Elevation
Range (km)
Doppler Factor

Next 0 passes for location: London (51.5072 / 0.1276)

Sorry there are no passes over London.